Погода Петропавловск-Каз.

Погода Петропавловск-Каз. : погода сейчас, прогноз погоды и архив. Всё, что Вы хотите узнать о погоде Петропавловск-Каз.!

Поиск расширенной информации на нашем сайте:

Другие новости

Новости СМИ2

Главная страница сайта

Новости сайта

03.07.2017

Напоминаем, что на нашем специализированном сайте Метеоцентр.Азия вы можете получить высокодетализированные автоматические прогнозы погоды по пунктам России, СНГ и мира в авиационном формате (включающие направление и скорость ветра, видимость, явления погоды, количество и форму облачности, нижнюю и верхнюю границу облачности).


Погода Петропавловск-Каз. - сегодня

Время (UTC), дата Ветер
(°,м/с) 
Видим.   Явления Облачность Т
(°С)
Тd
(°С)
f(%) Тe
(°С)
Pmin
(гПа)
dP
(гПа)
Po
(мм)
O2
(г/м3)
Тmin Tmax R s Состояние
почвы
18 15.04.18 230 (ЮЗ) н/о    8/3 1000 м средняя 
[Sc|Ac trans]
+5.3 +1.3 75 +4  1006.4  -1  746  294    +10.1       
21 15.04.18 230 (ЮЗ) н/о    ясно 
+3 +0.1 81 +1  1004.5  -2  744  296           
00 16.04.18 220 (ЮЗ) 10 км    8/6 1000 м средняя 
[Sc|Ac trans]
+2 -0.8 82 1003.1  -1.4  743  297           
03 16.04.18 230 (ЮЗ) 10 км  в посл. час ливневой снег  9/8 600 м кучево-дожд., средняя, верхняя 
[Cb cap|Ac trans|Ci fib]
+3.7 -0.6 73 +2  1003  743  295      0.0     
00 17.04.18 250 (З) 10 км  {ливн. осадки}  ясно 
-5.7 -7.2 89 -7  1016.5  1.4  753  311           
03 17.04.18 220 (ЮЗ) 10 км    3/1 1000 м средняя, верхняя 
[Sc|Ac trans|Ci fib]
-1.7 -4.3 82 -4  1017.4  1.1  754  306      0.2  <0.5  равномерный
сухой снег
100% 
09 17.04.18 310 (СЗ) 10 км  в посл. час ливневой снег  6/4 600 м кучево-дожд., средняя 
[Cb cap|Ac trans]
+1.1 -5.3 62 +2  1018.3  0.1  754  303           
18 17.04.18 220 (ЮЗ) н/о    ясно 
-4.8 -6.1 91 -6  1021.3  0.8  756  311    +3.7  0.0     
21 17.04.18 230 (ЮЗ) н/о    ясно 
-5.3 -6.7 90 -7  1021.4  0.1  756  312           
00 18.04.18 220 (ЮЗ) 10 км    ясно 
-6.1 -6.9 94 -8  1021.9  0.4  757  313           
06 18.04.18 200 (Ю) 10 км    4/0 средняя 
[Ac trans]
+2.4 -11.9 34 +3  1022.4  0.1  757  304  -6.3         
09 18.04.18 тихо ()   10 км    6/3 1000 м средняя 
[Sc|Ac trans]
+5.1 -9.3 34 +5  1021.5  -0.7  757  300           
12 18.04.18 070 (В) 10 км    4/0 средняя, верхняя 
[Ac trans|Ci fib]
+3.9 -9.5 37 +5  1021.4  -0.1  757  302           
15 18.04.18 040 (СВ) 10 км    3/0 средняя 
[Ac trans]
-0.9 -9.7 51 -2  1021.6  -0.1  757  307    +6.1       
18 18.04.18 070 (В) н/о    ясно 
-4 -7 80 -5  1021.9  0.1  757  310    +6.1       
21 18.04.18 130 (ЮВ) н/о  дымка  3/0 средняя 
[Ac trans]
-3.8 -5.3 89 -3  1021.5  -0.3  756  310           
06 19.04.18 220 (ЮЗ) 10 км    6/0 средняя 
[Ac trans]
+4.5 -7 43 +2  1019  -1.2  755  300  -5.4         
09 19.04.18 230 (ЮЗ) 10 км    6/4 1000 м средняя 
[Sc|Ac trans]
+6.9 -4.3 45 +5  1016.8  -2.1  753  297           
12 19.04.18 220 (ЮЗ) 10 км    4/0 средняя 
[Ac trans]
+7.2 -4.6 43 +5  1015.5  -1.2  752  296           
15 19.04.18 230 (ЮЗ) 10 км    4/0 верхняя 
[Cc]
+4.7 -4.9 50 +3  1014.9  -0.7  752  298    +8.1       
18 19.04.18 190 (Ю) н/о    ясно 
+2.8 -4.1 60 1013.4  -1.6  751  300    +8.1       
21 19.04.18 190 (Ю) н/о    3/0 средняя 
[Ac trans]
+2 -3.4 67 -1  1011.5  1.9  749  300           
00 20.04.18 180 (Ю) 10 км    9/8 1000 м средняя 
[Sc|Ac trans]
+3.2 -2.9 64 1009  -2.4  747  298           
03 20.04.18 180 (Ю) 4000 м  слаб. ливневой дождь  10/10 600 м кучево-дожд. 
[Cb cap]
+4 +3.3 95 +1  1007.1  -1.9  746  296      0.4     
21 20.04.18 190 (Ю) н/о    10/10 1000 м кучево-дожд. 
[Cb cap]
+11.2 +0.6 48 +10  1001  -1.7  742  287           
Время (UTC), дата Ветер
(°,м/с) 
Видим.   Явления Облачность Т
(°С)
Тd
(°С)
f(%) Тe
(°С)
Pmin
(гПа)
dP
(гПа)
Po
(мм)
O2
(г/м3)
Тmin Tmax R s Состояние
почвы

Для получения пояснительной информации подведите курсор к названию столбца.

ПОГОДА Петропавловск-Каз. - архив

Всё, что Вы хотите узнать о погоде Петропавловск-Каз. - удобно и подробно!

Выберите нужную дату (начиная с 1 января 2015* года) и нажмите кнопку "Найти".
Будут отображены архивные сводки погоды по пункту Петропавловск-Каз., начиная с указанной даты.


Отображать данные в формате CSV (для использования в таблицах Excel)


Внимание! Наш архив погоды предназначен исключительно для личного некоммерческого использования в познавательных целях. Если Вам необходимы официальные справки о состоянии погоды (для производственных, юридических, коммерческих и т.п. целей), обращайтесь в органы Росгидромета.

*Примечание: данная дата относится к архиву по метеостанциям СССР (Россия, СНГ, Балтия).
Архив по метеостанциям Зарубежной Европы и Азии (кроме Китая) хранится 10 дней, по другим регионам земного шара (Китай, Африка, Америка, Австралия, Океания) - 1 день.

Петропавловск-Каз. - район местоположения метеостанции


Название, широта, долгота, высота метеостанции:
Петропавловск-Каз. 54.8°ш. 69.2°д. 142 м над ур. моря [Казахстан]

Дополнительная информация

В oтличие oт бoльшинства пoгoдных сайтoв мы публикуем пoдрoбную метеoинфoрмацию в детальнoм прoфессиoнальнoм фoрмате.

Характеристики температуры и влажнoсти вoздуха измеряются на высoте 2 м в тени вдали oт зданий и деревьев.
Скoрoсть ветра измеряется на высoте 10 м (на урoвне рoста челoвека скoрoсть ветра ниже в 1.5-2 раза). Если метеoстанция нахoдится в гoрoде или в лесу, тo скoрoсть ветра занижена на 2-4 м/с пo сравнению с oткрытым местoм. Скoрoсть ветра над акватoриями крупных рек и oзёр, а также на вершинах хoлмoв на 2-5 м/с выше, чем в oбычных услoвиях.
Атмoсфернoе давление в разных тoчках местнoсти мoжет значительнo oтличаться oт давления на метеoстанции, в зависимoсти oт услoвий рельефа (при пoдъёме на 10 м давление пoнижается примернo на 1 мм рт.ст.).